Location: Ku?niki
(51.4449°N, 17.8974°E)
Time: 10:56:46
(UTC+00:00)

CZ-2C R/B - Pass Details

Date: 18 September 2020
Orbit: 785 x 870 km, 98.2° (Epoch: 25 October)

Event Time Altitude Azimuth Distance (km) Brightness Sun altitude
Rises 19:14:59 0° 12° (NNE) 3,405 6.1 -21.4°
Reaches altitude 10° 19:17:22 10° 8° (N) 2,478 5.4 -21.7°
Maximum altitude 19:22:46 58° 291° (WNW) 996 3.3 -22.4°
Drops below altitude 10° 19:28:13 10° 214° (SW) 2,503 5.1 -23.1°
Sets 19:30:38 0° 210° (SSW) 3,441 5.8 -23.4°
